Location: ?????????
(38.0736°N, 23.2119°E)
Time: 13:50:47
(UTC+00:00)

USA 229 DEB - Pass Details

Date: 18 April 2024
Orbit: 892 x 1319 km, 63.4° (Epoch: 15 May)

Event Time Altitude Azimuth Distance (km) Brightness Sun altitude
Rises 18:01:43 0° 181° (S) 3,497 6.2 -11.1°
Reaches altitude 10° 18:04:26 10° 171° (S) 2,581 5.4 -11.6°
Maximum altitude 18:09:34 31° 111° (ESE) 1,600 4.1 -12.5°
Drops below altitude 10° 18:15:02 10° 52° (NE) 2,763 5.6 -13.5°
Sets 18:18:01 0° 43° (NE) 3,783 6.4 -14.0°
